Location: Unspecified
(0.0000°N, 0.0000°E)
Time: 02:50:07
(UTC+00:00)

A-11 Canister half - Pass Details

Date: 22 December 2018
Orbit: 1515 x 1685 km, 47.2° (Epoch: 16 January)

Event Time Altitude Azimuth Distance (km) Brightness Sun altitude
Rises 19:21:48 0° 339° (NNW) 4,889 11.6 -19.0°
Reaches altitude 10° 19:25:26 10° 349° (N) 3,918 11.0 -19.8°
Maximum altitude 19:34:08 33° 49° (NE) 2,568 9.6 -21.8°
Enters shadow 19:35:07 32° 59° (ENE) 2,591 9.6 -22.0°
